Regional Weather Roundup
Issued by NWS

Home | Current Version | Previous Version | Graphics & Text | Print | Product List | Glossary On
Versions: 1 2 3 4 5 6 7 8 9 10 11 12 13 14 15 16 17 18 19 20 21 22 23 24 25 26 27 28 29 30 31 32 33 34 35 36 37 38 39 40 41 42 43 44 45 46 47 48 49 50
000
ASUS43 KFSD 251702
RWRSD

WEATHER ROUNDUP FOR SOUTH DAKOTA
NATIONAL WEATHER SERVICE SIOUX FALLS SD
1200 PM CDT MON MAY 25 2015

NOTE: "FAIR" INDICATES FEW OR NO CLOUDS BELOW 12,000 FEET WITH NO
SIGNIFICANT WEATHER AND/OR OBSTRUCTIONS TO VISIBILITY.


SDZ001>005-009-010-012>017-251800-
NORTHWEST AND NORTH CENTRAL SOUTH DAKOTA

CITY           SKY/WX    TMP DP  RH WIND       PRES   REMARKS
FAITH            N/A     55  53  93 NE16      29.84R
MOBRIDGE       LGT RAIN  60  58  92 E12       29.81R
$$

SDZ012>016-024>037-041>051-057-063-072>074-251800-
SOUTHWEST AND SOUTH CENTRAL SOUTH DAKOTA

CITY           SKY/WX    TMP DP  RH WIND       PRES   REMARKS
RAPID CTY ARPT CLOUDY    59  52  77 N14       29.82S
PIERRE         CLOUDY    60  55  83 NE7       29.77F
CUSTER         CLOUDY    55  43  63 VRB7      29.87R
ELLSWORTH AFB  CLOUDY    59  52  77 N16       29.82S
PHILIP         CLOUDY    61  52  72 NE7       29.80R
PINE RIDGE     CLOUDY    56  50  80 NE9       29.83R
WINNER         CLOUDY    62  55  77 NE9       29.77S
$$

SDZ004>011-016>023-039-040-251800-
NORTHEAST SOUTH DAKOTA

CITY           SKY/WX    TMP DP  RH WIND       PRES   REMARKS
ABERDEEN       CLOUDY    62  56  80 NE15      29.79R
WATERTOWN      CLOUDY    60  56  86 N14       29.74R
BROOKINGS      CLOUDY    63  57  82 W10       29.76R
$$

SDZ017-020-022-023-036>040-048>070-251800-
SOUTHEAST SOUTH DAKOTA

CITY           SKY/WX    TMP DP  RH WIND       PRES   REMARKS
SIOUX FALLS    CLOUDY    65  58  78 SW6       29.76S
HURON          CLOUDY    62  56  80 CALM      29.76R
CHAMBERLAIN    CLOUDY    60  56  85 N7        29.76F
MITCHELL       CLOUDY    63  57  81 CALM      29.77S
YANKTON        CLOUDY    63  57  82 S3        29.76F
$$

ABBREVIATIONS USED IN REMARKS
   TC - TEMPERATURE IN CELSIUS
  WCI - WIND CHILL INDEX
   HX - HEAT INDEX
  VSB - VISIBILITY



USA.gov is the U.S. government's official web portal to all federal, state and local government web resources and services.